Phoenix, AZ

8:54 PM MST on June 22, 2017 (GMT -0700)
Phoenix Sky Harbor International

Weather History for KPHX - November, 2012

Change the Weather History Date:

Monday, November 5, 2012

  Actual Average Record
Temperature  
Mean Temperature 75 °F 69 °F  
Max Temperature 91 °F 80 °F 93 °F (2007)
Min Temperature 59 °F 57 °F 32 °F (1922)
Degree Days  
Heating Degree Days 0 1  
Month to date heating degree days 0 5  
Since 1 July heating degree days 0 11  
Cooling Degree Days 10 5  
Month to date cooling degree days 47 27  
Year to date cooling degree days 4975 4563  
Growing Degree Days 25 (Base 50)    
Moisture  
Dew Point 29 °F    
Average Humidity 25    
Maximum Humidity 42    
Minimum Humidity 7    
Precipitation  
Precipitation 0.00 in 0.02 in 0.63 in (1905)
Month to date precipitation 0.00 0.10  
Year to date precipitation 3.36 6.60  
Snow  
Snow 0.00 in - - ()
Month to date snowfall 0.0  
Year to date snowfall 0.0  
Since 1 July snowfall 0.0  
Snow Depth 0.00 in    
Sea Level Pressure  
Sea Level Pressure 30.00 in    
Wind  
Wind Speed 3 mph (South)    
Max Wind Speed 9 mph    
Max Gust Speed 12 mph    
Visibility 10 miles    
Events      
T = Trace of Precipitation, MM = Missing Value Source: NWS Daily Summary

Daily Weather History Graph

Daily Weather History Graph

Search for Another Location

Airport or City:

Trip Planner

Search our weather history database for the weather conditions in past years. The results will help you decide how hot, cold, wet, or windy it might be!

Date:

Astronomy

Nov. 05, 2012 Rise Set
Actual Time 6:50 AM MST 5:32 PM MST
Civil Twilight 6:24 AM MST 5:57 PM MST
Nautical Twilight 5:55 AM MST 6:27 PM MST
Astronomical Twilight 5:26 AM MST 6:56 PM MST
Moon 11:12 PM MST (11/5) 12:11 PM MST (11/5)
Length of Visible Light 11h 33m
Length of Day
10h 41m
Waning Gibbous, 62% of the Moon is Illuminated
Nov 5
Waning Gibbous
Nov 6
Last Quarter
Nov 13
New
Nov 20
First Quarter
Nov 28
Full

Hourly Weather History & Observations

Time (MST) Temp. Dew Point Humidity Pressure Visibility Wind Dir Wind Speed Gust Speed Precip Events Conditions
12:51 AM 69.1 °F 33.1 °F 26% 30.01 in 10.0 mi Calm Calm - N/A   Clear
1:51 AM 69.1 °F 34.0 °F 27% 30.01 in 10.0 mi NW 3.5 mph - N/A   Clear
2:51 AM 66.0 °F 35.1 °F 32% 30.01 in 10.0 mi Calm Calm - N/A   Clear
3:51 AM 63.0 °F 34.0 °F 34% 30.01 in 10.0 mi Calm Calm - N/A   Clear
4:51 AM 64.0 °F 36.0 °F 35% 30.01 in 10.0 mi North 3.5 mph - N/A   Clear
5:51 AM 62.1 °F 37.9 °F 41% 30.02 in 10.0 mi Calm Calm - N/A   Clear
6:51 AM 60.1 °F 37.9 °F 44% 30.04 in 10.0 mi Calm Calm - N/A   Partly Cloudy
7:51 AM 66.0 °F 28.0 °F 24% 30.06 in 10.0 mi Calm Calm - N/A   Partly Cloudy
8:51 AM 72.0 °F 28.0 °F 20% 30.06 in 10.0 mi ESE 5.8 mph - N/A   Clear
9:51 AM 78.1 °F 26.1 °F 15% 30.06 in 10.0 mi East 6.9 mph - N/A   Clear
10:51 AM 82.9 °F 24.1 °F 12% 30.05 in 10.0 mi SE 9.2 mph - N/A   Clear
11:51 AM 84.0 °F 26.1 °F 12% 30.03 in 10.0 mi Variable 3.5 mph - N/A   Clear
12:51 PM 88.0 °F 25.0 °F 10% 29.99 in 10.0 mi Calm Calm - N/A   Clear
1:51 PM 87.1 °F 24.1 °F 10% 29.97 in 10.0 mi Variable 3.5 mph - N/A   Clear
2:51 PM 91.0 °F 19.9 °F 7% 29.95 in 10.0 mi SW 5.8 mph - N/A   Clear
3:51 PM 90.0 °F 19.0 °F 7% 29.94 in 10.0 mi SSW 3.5 mph - N/A   Clear
4:51 PM 89.1 °F 19.9 °F 8% 29.94 in 10.0 mi WSW 4.6 mph - N/A   Clear
5:51 PM 84.0 °F 24.1 °F 11% 29.94 in 10.0 mi SW 3.5 mph - N/A   Clear
6:51 PM 81.0 °F 26.1 °F 13% 29.96 in 10.0 mi West 3.5 mph - N/A   Clear
7:51 PM 79.0 °F 27.0 °F 15% 29.96 in 10.0 mi Calm Calm - N/A   Clear
8:51 PM 73.9 °F 28.0 °F 18% 29.97 in 10.0 mi Calm Calm - N/A   Clear
9:51 PM 73.0 °F 28.9 °F 20% 29.97 in 10.0 mi East 3.5 mph - N/A   Clear
10:51 PM 70.0 °F 32.0 °F 25% 29.97 in 10.0 mi Calm Calm - N/A   Clear
11:51 PM 69.1 °F 34.0 °F 27% 29.97 in 10.0 mi East 3.5 mph - N/A   Clear